Date,TemperatureHighF,TemperatureAvgF,TemperatureLowF,DewpointHighF,DewpointAvgF,DewpointLowF,HumidityHigh,HumidityAvg,HumidityLow,PressureMaxIn,PressureMinIn,WindSpeedMaxMPH,WindSpeedAvgMPH,GustSpeedMaxMPH,PrecipitationSumIn
2014-1-1,51,34,27,-100,-100,-100,0,0,100,0.00,40.00,0,-999,0,0.00
2014-1-2,51,36,27,-100,-100,-100,0,0,100,0.00,40.00,0,-999,0,0.00
2014-1-3,51,36,29,-100,-100,-100,0,0,100,0.00,40.00,0,-999,0,0.00
2014-1-4,43,35,30,-100,-100,-100,0,0,100,0.00,40.00,0,-999,0,0.00
2014-1-5,43,30,18,-100,-100,-100,0,0,100,0.00,40.00,0,-999,0,0.00
2014-1-6,41,28,19,-100,-100,-100,0,0,100,0.00,40.00,0,-999,0,0.00
2014-1-12,29,28,26,-100,-100,-100,0,0,100,0.00,40.00,0,-999,0,0.00
2014-1-13,50,34,22,-100,-100,-100,0,0,100,0.00,40.00,0,-999,0,0.00
2014-1-14,51,31,25,-100,-100,-100,0,0,100,0.00,40.00,0,-999,0,0.00
2014-1-15,52,38,25,-100,-100,-100,0,0,100,0.00,40.00,0,-999,0,0.00
2014-1-16,49,33,23,-100,-100,-100,0,0,100,0.00,40.00,0,-999,0,0.00
2014-1-17,50,31,24,-100,-100,-100,0,0,100,0.00,40.00,0,-999,0,0.00
2014-1-18,51,32,26,-100,-100,-100,0,0,100,0.00,40.00,0,-999,0,0.00
2014-1-19,58,44,27,-100,-100,-100,0,0,100,0.00,40.00,0,-999,0,0.00
2014-1-20,52,42,26,-100,-100,-100,0,0,100,0.00,40.00,0,-999,0,0.00
2014-1-26,50,43,32,-100,-100,-100,0,0,100,0.00,40.00,0,-999,0,0.00
2014-1-27,27,27,27,-100,-100,-100,0,0,100,0.00,40.00,0,-999,0,0.00
2014-1-28,41,41,41,-100,-100,-100,0,0,100,0.00,40.00,0,-999,0,0.00
2014-1-29,50,48,43,-100,-100,-100,0,0,100,0.00,40.00,0,-999,0,0.01
2014-1-30,29,29,29,-100,-100,-100,0,0,100,0.00,40.00,0,-999,0,0.00
2014-1-31,28,25,18,-100,-100,-100,0,0,100,0.00,40.00,0,-999,0,0.00
2014-2-1,33,22,11,-100,-100,-100,0,0,100,0.00,40.00,0,-999,0,0.00
2014-2-2,26,22,19,-100,-100,-100,0,0,100,0.00,40.00,0,-999,0,0.00
2014-2-3,37,26,15,-100,-100,-100,0,0,100,0.00,40.00,0,-999,0,0.00
2014-2-4,39,25,16,-100,-100,-100,0,0,100,0.00,40.00,0,-999,0,0.00
2014-2-5,30,24,21,-100,-100,-100,0,0,100,0.00,40.00,0,-999,0,0.00
2014-2-6,43,36,31,-100,-100,-100,0,0,100,0.00,40.00,0,-999,0,0.00
2014-2-7,40,36,33,-100,-100,-100,0,0,100,0.00,40.00,0,-999,0,0.00
2014-2-12,51,49,46,-100,-100,-100,0,0,100,0.00,40.00,0,-999,0,0.00
2014-2-13,55,51,46,-100,-100,-100,0,0,100,0.00,40.00,0,-999,0,0.00
2014-2-14,57,51,49,-100,-100,-100,0,0,100,0.00,40.00,0,-999,0,0.00
2014-2-15,54,52,49,-100,-100,-100,0,0,100,0.00,40.00,0,-999,0,0.00
2014-2-16,50,39,34,-100,-100,-100,0,0,100,0.00,40.00,0,-999,0,0.01
2014-2-17,45,37,30,-100,-100,-100,0,0,100,0.00,40.00,0,-999,0,0.00
2014-2-18,51,40,31,-100,-100,-100,0,0,100,0.00,40.00,0,-999,0,0.00
2014-2-19,50,42,38,-100,-100,-100,0,0,100,0.00,40.00,0,-999,0,0.00
2014-2-20,53,35,25,-100,-100,-100,0,0,100,0.00,40.00,0,-999,0,0.00
2014-2-21,50,35,27,-100,-100,-100,0,0,100,0.00,40.00,0,-999,0,0.00
2014-2-22,52,41,29,-100,-100,-100,0,0,100,0.00,40.00,0,-999,0,0.00
2014-2-23,58,38,27,-100,-100,-100,0,0,100,0.00,40.00,0,-999,0,0.00
2014-2-24,37,32,30,-100,-100,-100,0,0,100,0.00,40.00,0,-999,0,0.00
2014-2-25,59,44,30,-100,-100,-100,0,0,100,0.00,40.00,0,-999,0,0.00
2014-2-26,46,41,38,-100,-100,-100,0,0,100,0.00,40.00,0,-999,0,0.00
2014-2-27,40,36,33,-100,-100,-100,0,0,100,0.00,40.00,0,-999,0,0.05
2014-2-28,38,34,30,-100,-100,-100,0,0,100,0.00,40.00,0,-999,0,0.04
2014-3-1,45,37,31,-100,-100,-100,0,0,100,0.00,40.00,0,-999,0,0.01
2014-3-2,42,36,30,-100,-100,-100,0,0,100,0.00,40.00,0,-999,0,0.00
2014-3-3,47,42,38,-100,-100,-100,0,0,100,0.00,40.00,0,-999,0,0.01
2014-3-4,53,41,32,-100,-100,-100,0,0,100,0.00,40.00,0,-999,0,0.01
2014-3-5,54,46,42,-100,-100,-100,0,0,100,0.00,40.00,0,-999,0,0.00
2014-3-6,48,41,30,-100,-100,-100,0,0,100,0.00,40.00,0,-999,0,0.02
2014-3-7,49,37,28,-100,-100,-100,0,0,100,0.00,40.00,0,-999,0,0.00
2014-3-8,62,45,26,-100,-100,-100,0,0,100,0.00,40.00,0,-999,0,0.00
2014-3-11,40,35,25,-100,-100,-100,0,0,100,0.00,40.00,0,-999,0,0.02
2014-3-12,48,39,28,-100,-100,-100,0,0,100,0.00,40.00,0,-999,0,0.00
2014-3-13,55,41,25,-100,-100,-100,0,0,100,0.00,40.00,0,-999,0,0.00
2014-3-14,57,46,29,-100,-100,-100,0,0,100,0.00,40.00,0,-999,0,0.01
2014-3-15,60,57,54,-100,-100,-100,0,0,100,0.00,40.00,0,-999,0,0.00
2014-3-16,64,48,30,-100,-100,-100,0,0,100,0.00,40.00,0,-999,0,0.00
2014-3-17,51,49,43,-100,-100,-100,0,0,100,0.00,40.00,0,-999,0,0.00
2014-3-18,47,35,23,-100,-100,-100,0,0,100,0.00,40.00,0,-999,0,0.01
2014-3-19,58,36,23,-100,-100,-100,0,0,100,0.00,40.00,0,-999,0,0.00
2014-3-20,57,41,33,-100,-100,-100,0,0,100,0.00,40.00,0,-999,0,0.00
2014-3-26,34,34,33,-100,-100,-100,0,0,100,0.00,40.00,0,-999,0,0.04
2014-3-27,42,37,33,-100,-100,-100,0,0,100,0.00,40.00,0,-999,0,0.00
2014-3-28,38,37,36,-100,-100,-100,0,0,100,0.00,40.00,0,-999,0,0.00
2014-3-29,42,42,41,-100,-100,-100,0,0,100,0.00,40.00,0,-999,0,0.02
2014-3-30,35,33,30,-100,-100,-100,0,0,100,0.00,40.00,0,-999,0,0.02
2014-3-31,40,34,28,-100,-100,-100,0,0,100,0.00,40.00,0,-999,0,0.01
2014-4-1,37,33,25,-100,-100,-100,0,0,100,0.00,40.00,0,-999,0,0.02
2014-4-2,43,33,28,-100,-100,-100,0,0,100,0.00,40.00,0,-999,0,0.00
2014-4-3,48,37,26,-100,-100,-100,0,0,100,0.00,40.00,0,-999,0,0.00
2014-4-4,47,36,30,-100,-100,-100,0,0,100,0.00,40.00,0,-999,0,0.00
2014-4-5,49,40,30,-100,-100,-100,0,0,100,0.00,40.00,0,-999,0,0.01
2014-4-6,56,47,28,-100,-100,-100,0,0,100,0.00,40.00,0,-999,0,0.00
2014-4-7,66,53,33,-100,-100,-100,0,0,100,0.00,40.00,0,-999,0,0.00
2014-4-8,67,56,35,-100,-100,-100,0,0,100,0.00,40.00,0,-999,0,0.02
2014-4-9,64,53,38,-100,-100,-100,0,0,100,0.00,40.00,0,-999,0,0.00
2014-4-10,68,53,38,-100,-100,-100,0,0,100,0.00,40.00,0,-999,0,0.00
2014-4-11,68,52,37,-100,-100,-100,0,0,100,0.00,40.00,0,-999,0,0.00
2014-4-12,62,51,40,-100,-100,-100,0,0,100,0.00,40.00,0,-999,0,0.00
2014-4-13,52,40,33,-100,-100,-100,0,0,100,0.00,40.00,0,-999,0,0.01
2014-4-14,65,56,47,-100,-100,-100,0,0,100,0.00,40.00,0,-999,0,0.00
2014-4-15,53,46,42,-100,-100,-100,0,0,100,0.00,40.00,0,-999,0,0.00
2014-4-16,63,47,36,-100,-100,-100,0,0,100,0.00,40.00,0,-999,0,0.00
2014-4-17,64,57,43,-100,-100,-100,0,0,100,0.00,40.00,0,-999,0,0.01
2014-4-18,65,53,43,-100,-100,-100,0,0,100,0.00,40.00,0,-999,0,0.02
2014-4-19,63,51,38,-100,-100,-100,0,0,100,0.00,40.00,0,-999,0,0.01
2014-4-20,63,47,31,-100,-100,-100,0,0,100,0.00,40.00,0,-999,0,0.00
2014-4-21,62,49,35,-100,-100,-100,0,0,100,0.00,40.00,0,-999,0,0.01
2014-4-22,46,38,31,-100,-100,-100,0,0,100,0.00,40.00,0,-999,0,0.02
2014-4-23,56,41,28,-100,-100,-100,0,0,100,0.00,40.00,0,-999,0,0.02
2014-4-24,56,47,35,-100,-100,-100,0,0,100,0.00,40.00,0,-999,0,0.01
2014-4-25,42,36,30,-100,-100,-100,0,0,100,0.00,40.00,0,-999,0,0.02
2014-4-26,43,35,26,-100,-100,-100,0,0,100,0.00,40.00,0,-999,0,0.01
2014-4-27,48,40,34,-100,-100,-100,0,0,100,0.00,40.00,0,-999,0,0.05
2014-4-28,56,41,27,-100,-100,-100,0,0,100,0.00,40.00,0,-999,0,0.00
2014-4-29,60,44,30,-100,-100,-100,0,0,100,0.00,40.00,0,-999,0,0.00
2014-4-30,64,45,30,-100,-100,-100,0,0,100,0.00,40.00,0,-999,0,0.00
2014-5-1,74,53,33,-100,-100,-100,0,0,100,0.00,40.00,0,-999,0,0.00
2014-5-2,71,56,38,-100,-100,-100,0,0,100,0.00,40.00,0,-999,0,0.00
2014-5-3,65,57,46,-100,-100,-100,0,0,100,0.00,40.00,0,-999,0,0.02
2014-5-4,61,55,50,-100,-100,-100,0,0,100,0.00,40.00,0,-999,0,0.01
2014-5-5,54,49,40,-100,-100,-100,0,0,100,0.00,40.00,0,-999,0,0.02
2014-5-6,47,41,34,-100,-100,-100,0,0,100,0.00,40.00,0,-999,0,0.01
2014-5-13,67,54,43,-100,-100,-100,0,0,100,0.00,40.00,0,-999,0,0.00
2014-5-14,74,53,35,-100,-100,-100,0,0,100,0.00,40.00,0,-999,0,0.00
2014-5-15,76,58,40,-100,-100,-100,0,0,100,0.00,40.00,0,-999,0,0.00
2014-5-16,74,62,50,-100,-100,-100,0,0,100,0.00,40.00,0,-999,0,0.02
2014-5-17,70,62,51,-100,-100,-100,0,0,100,0.00,40.00,0,-999,0,0.00
2014-5-18,61,53,45,-100,-100,-100,0,0,100,0.00,40.00,0,-999,0,0.01
2014-5-19,57,48,36,-100,-100,-100,0,0,100,0.00,40.00,0,-999,0,0.01
2014-5-20,47,40,36,-100,-100,-100,0,0,100,0.00,40.00,0,-999,0,0.02
2014-5-21,52,44,38,-100,-100,-100,0,0,100,0.00,40.00,0,-999,0,0.02
2014-5-22,59,47,38,-100,-100,-100,0,0,100,0.00,40.00,0,-999,0,0.01
2014-5-23,69,54,35,-100,-100,-100,0,0,100,0.00,40.00,0,-999,0,0.00
2014-5-24,71,57,42,-100,-100,-100,0,0,100,0.00,40.00,0,-999,0,0.00
2014-5-25,76,58,43,-100,-100,-100,0,0,100,0.00,40.00,0,-999,0,0.00
2014-5-26,76,60,42,-100,-100,-100,0,0,100,0.00,40.00,0,-999,0,0.00
2014-5-27,72,63,56,-100,-100,-100,0,0,100,0.00,40.00,0,-999,0,0.01
2014-5-28,67,56,41,-100,-100,-100,0,0,100,0.00,40.00,0,-999,0,0.01
2014-5-29,65,50,31,-100,-100,-100,0,0,100,0.00,40.00,0,-999,0,0.00
2014-5-30,67,53,36,-100,-100,-100,0,0,100,0.00,40.00,0,-999,0,0.00
2014-5-31,69,55,40,-100,-100,-100,0,0,100,0.00,40.00,0,-999,0,0.01
2014-6-1,74,56,35,-100,-100,-100,0,0,100,0.00,40.00,0,-999,0,0.00
2014-6-2,69,56,42,-100,-100,-100,0,0,100,0.00,40.00,0,-999,0,0.01
2014-6-3,74,56,38,-100,-100,-100,0,0,100,0.00,40.00,0,-999,0,0.02
2014-6-4,75,58,40,-100,-100,-100,0,0,100,0.00,40.00,0,-999,0,0.00
2014-6-5,77,65,51,-100,-100,-100,0,0,100,0.00,40.00,0,-999,0,0.00
2014-6-6,75,60,44,-100,-100,-100,0,0,100,0.00,40.00,0,-999,0,0.00
2014-6-7,81,62,44,-100,-100,-100,0,0,100,0.00,40.00,0,-999,0,0.00
2014-6-8,78,61,44,-100,-100,-100,0,0,100,0.00,40.00,0,-999,0,0.00
2014-6-9,81,64,45,-100,-100,-100,0,0,100,0.00,40.00,0,-999,0,0.00
2014-6-10,81,65,48,-100,-100,-100,0,0,100,0.00,40.00,0,-999,0,0.00
2014-6-11,79,62,46,-100,-100,-100,0,0,100,0.00,40.00,0,-999,0,0.00
2014-6-12,71,63,51,-100,-100,-100,0,0,100,0.00,40.00,0,-999,0,0.01
2014-6-13,67,58,44,-100,-100,-100,0,0,100,0.00,40.00,0,-999,0,0.01
2014-6-14,69,53,34,-100,-100,-100,0,0,100,0.00,40.00,0,-999,0,0.01
2014-6-15,67,58,49,-100,-100,-100,0,0,100,0.00,40.00,0,-999,0,0.01
2014-6-16,60,55,49,-100,-100,-100,0,0,100,0.00,40.00,0,-999,0,0.01
2014-6-17,60,49,40,-100,-100,-100,0,0,100,0.00,40.00,0,-999,0,0.02
2014-6-18,71,52,33,-100,-100,-100,0,0,100,0.00,40.00,0,-999,0,0.01
2014-6-19,75,60,40,-100,-100,-100,0,0,100,0.00,40.00,0,-999,0,0.00
2014-6-20,77,65,53,-100,-100,-100,0,0,100,0.00,40.00,0,-999,0,0.01
2014-6-21,77,64,51,-100,-100,-100,0,0,100,0.00,40.00,0,-999,0,0.01
2014-6-22,76,61,42,-100,-100,-100,0,0,100,0.00,40.00,0,-999,0,0.01
2014-6-23,80,61,46,-100,-100,-100,0,0,100,0.00,40.00,0,-999,0,0.00
2014-6-24,76,63,47,-100,-100,-100,0,0,100,0.00,40.00,0,-999,0,0.00
2014-6-25,72,60,48,-100,-100,-100,0,0,100,0.00,40.00,0,-999,0,0.00
2014-6-26,62,55,49,-100,-100,-100,0,0,100,0.00,40.00,0,-999,0,0.02
2014-6-27,72,65,55,-100,-100,-100,0,0,100,0.00,40.00,0,-999,0,0.00
2014-6-28,78,67,52,-100,-100,-100,0,0,100,0.00,40.00,0,-999,0,0.00
2014-6-29,85,69,51,-100,-100,-100,0,0,100,0.00,40.00,0,-999,0,0.00
2014-6-30,85,67,49,-100,-100,-100,0,0,100,0.00,40.00,0,-999,0,0.00
2014-7-1,86,68,51,-100,-100,-100,0,0,100,0.00,40.00,0,-999,0,0.00
2014-7-2,83,70,51,-100,-100,-100,0,0,100,0.00,40.00,0,-999,0,0.02
2014-7-3,82,66,53,-100,-100,-100,0,0,100,0.00,40.00,0,-999,0,0.00
2014-7-4,79,64,50,-100,-100,-100,0,0,100,0.00,40.00,0,-999,0,0.01
2014-7-5,82,69,51,-100,-100,-100,0,0,100,0.00,40.00,0,-999,0,0.01
2014-7-6,87,72,51,-100,-100,-100,0,0,100,0.00,40.00,0,-999,0,0.00
2014-7-7,83,70,53,-100,-100,-100,0,0,100,0.00,40.00,0,-999,0,0.01
2014-7-8,82,70,60,-100,-100,-100,0,0,100,0.00,40.00,0,-999,0,0.01
2014-7-9,81,64,52,-100,-100,-100,0,0,100,0.00,40.00,0,-999,0,0.00
2014-7-10,79,66,53,-100,0,200,0,0,100,0.00,40.00,0,0,0,0.01
2014-7-11,77,68,61,-100,0,200,0,0,100,0.00,40.00,0,0,0,0.00
2014-7-12,82,67,50,-100,0,200,0,0,100,0.00,40.00,0,0,0,0.00
2014-7-13,87,71,54,-100,0,200,0,0,100,0.00,40.00,0,0,0,0.00
2014-7-14,91,71,56,-100,0,200,0,0,100,0.00,40.00,0,0,0,0.02
2014-7-15,83,65,56,-100,0,200,0,0,100,0.00,40.00,0,0,0,0.01